Starlink 32886

operational
NORAD ID: 62807 Int'l Des: 2025-018 Owner: SPXS Country: US Constellation: starlink
LEOCIRCULAR

关于 Starlink 32886

正在加载描述...

实时位置

正在加载3D地球...

即将过境

高度历史

Altitude vs Time

uPlot chart will show altitude changes over time

两行轨道根数

1 62807U 25018B 25303.93468456 .00042432 00000-0 14349-2 0 9995
2 62807 53.1597 192.2016 0001164 112.5171 247.5953 15.30238656 43311
Epoch: Oct 30, 2025 • Age: 9 hours

当前状态

高度 486.4 km
速度 7.62 km/s
星下点 -34.99°S, 106.69°W
发射日期 Jan 24, 2025
运行时间 0.7 years
类型 internet

技术详情

分类 Payload
质量 730.00 kg
干质量 700.00 kg
总质量 730.00 kg
长度 0.30 m
直径 4.10 m
跨度 29.00 m
形状 Box + pan
制造商 SPXS
平台类型 Starlink V2M
阶段状态 In Orbit
所有者/国家 SPXS/US

大型星座

Loading constellations...